Regional Weather Roundup
Issued by NWS

Home | Current Version | Previous Version | Text Only | Print | Product List | Glossary On
Versions: 1 2 3 4 5 6 7 8 9 10 11 12 13 14 15 16 17 18 19 20 21 22 23 24 25 26 27 28 29 30 31 32 33 34 35 36 37 38 39 40 41 42 43 44 45 46 47 48 49 50
000
ASUS44 KFWD 311103
RWRTX
NORTH TEXAS HOURLY WEATHER ROUNDUP
NATIONAL WEATHER SERVICE FORT WORTH TX
600 AM CDT THU JUL 31 2014

NOTE: "FAIR" INDICATES FEW OR NO CLOUDS BELOW 12,000 FEET WITH NO
SIGNIFICANT WEATHER AND/OR OBSTRUCTIONS TO VISIBILITY.

TXZ118-119-311200-
DALLAS/FORT WORTH METROPLEX

CITY           SKY/WX    TMP DP  RH WIND       PRES   REMARKS
DFW AIRPORT    CLOUDY    76  70  82 SE12      29.92F
DALLAS LOVE    CLOUDY    74  71  91 SE14      29.93F
FTW MEACHAM    PTCLDY    77  70  79 SE9       29.91F
DAL-EXECUTIVE  MOCLDY    76  70  82 SE9       29.94F
FTW-ALLIANCE   PTCLDY    73  70  90 CALM      29.92F
FTW-NAS-JRB    MOCLDY    79  69  71 SE6       29.96S
FTW-SPINKS     CLEAR     76  66  72 SE8       29.95S
ARLINGTON      MOCLDY    77  70  79 SE10      29.93F
GRAND PRAIRIE  PTCLDY    76  70  81 SE7       29.95S
ADDISON        CLOUDY    73  70  88 SE8       29.94F
LANCASTER      MOCLDY    74  69  84 E3        29.97R
$$

TXZ091>094-102>105-117-120-121-131>134-311200-
NORTH CENTRAL TEXAS

CITY           SKY/WX    TMP DP  RH WIND       PRES   REMARKS
SHRMAN/DENISON HVY RAIN  70  68  93 E9        29.96R
GAINESVILLE    HVY RAIN  70  69  98 N10       29.97S
BOWIE          LGT RAIN  71  71  99 NW5       29.97S
BRIDGEPORT     CLOUDY    73  73 100 N7        29.98S
DECATUR        CLOUDY    73  71  95 NW5       29.97S
DENTON         MOCLDY    72  70  93 W3        29.94R
MCKINNEY       CLOUDY    71  70  96 SE6       29.94S
ROCKWALL       CLOUDY    71  70  98 SE8       29.94F
TERRELL        LGT RAIN  74  72  93 E6        29.97R
WAXAHACHIE     PTCLDY    74  69  82 SE6       29.97R
CLEBURNE       PTCLDY    75  68  78 SE10      29.95F
GRANBURY       PTCLDY    78  67  69 CALM      29.94S
$$

TXZ083>090-098>101-113>116-127>130-139>142-154-155-311200-
WESTERN NORTH TEXAS

CITY           SKY/WX    TMP DP  RH WIND       PRES   REMARKS
WICHITA FALLS  CLOUDY    70  67  90 N15       30.00R
WF-KICKAPOO    CLOUDY    71  67  89 N10       30.02S
VERNON         CLOUDY    70  64  81 N12G17    30.07R
ABILENE        CLOUDY    70  64  81 N15       30.05R
ABILENE-DYESS  CLOUDY    69  64  82 N14       30.06R
BRECKENRIDGE   CLOUDY    73  65  77 N9G16     30.01S
GRAHAM         CLOUDY    71  66  86 NW10      29.98S
MINERAL WELLS  CLOUDY    73  70  90 N12       29.95S
STEPHENVILLE   PTCLDY    73  67  82 NW10      29.99S
COMANCHE       MOCLDY    71  66  83 NW9G17    29.99R
COLEMAN        CLOUDY    73  64  75 N10       30.02R
BRADY          CLEAR     77  61  57 SE5       29.99S
$$

TXZ143>147-156>162-174-175-311200-
CENTRAL TEXAS

CITY           SKY/WX    TMP DP  RH WIND       PRES   REMARKS
WACO           MOCLDY    78  70  76 S13       29.94S
WACO-MCGREGOR  CLOUDY    77  66  69 S7        29.97S
HILLSBORO      PTCLDY    74  65  73 SE3       29.96R
CORSICANA      MOCLDY    79  72  79 S6        29.97R
MEXIA          CLOUDY    77  72  86 S6        29.95S
HEARNE         CLOUDY   N/A N/A N/A CALM      29.96S
CAMERON        CLOUDY    77  73  90 S6        29.95S
TEMPLE         CLOUDY    75  66  73 S10       29.95S
KILLEEN        NOT AVBL
KILLEEN-SKYLRK CLOUDY    79  66  65 S9        29.95S
FORT HOOD      CLOUDY    80  71  74 S10       29.95S
GATESVILLE     CLOUDY    79  70  73 S3        29.98R HAZE
HAMILTON       MOCLDY    74  61  65 SW13      29.97F
$$

TXZ095>097-106>112-122>126-135>138-148>153-164>167-311200-
EAST TEXAS

CITY           SKY/WX    TMP DP  RH WIND       PRES   REMARKS
PARIS          CLOUDY    66  63  88 E16       30.01R
SULPHUR SPRNGS TSTM      70  69  96 E7        30.01F
CLARKSVILLE    CLOUDY    69  67  94 E6        30.03S
MOUNT PLEASANT CLOUDY    69  67  94 SE7       30.04R
GILMER         HVY RAIN  70  70 100 CALM      30.04R
MINEOLA        HVY RAIN  72  72 100 SE6       30.00R
TYLER          TSTM      72  70  93 SE5       30.00F FOG
LONGVIEW       TSTM      72  66  83 SE3       30.00R
MARSHALL       CLOUDY    73  70  89 CALM      30.05R
ATHENS         CLOUDY    73  72  94 SE5       29.97S
JACKSONVILLE   CLOUDY    73  70  92 SE6       30.00S
HENDERSON      CLOUDY    71  67  89 S5        30.00F
NACOGDOCHES    CLOUDY    72  66  83 SE7       30.01S
LUFKIN         CLOUDY    75  66  73 E6        29.99F
$$

SUPPLEMENTAL OBSERVATIONS (CENTRAL)

CITY           SKY/WX    TMP DP  RH WIND       PRES   REMARKS
$$

SUPPLEMENTAL OBSERVATIONS (WEST)

CITY           SKY/WX    TMP DP  RH WIND       PRES   REMARKS
$$

SUPPLEMENTAL OBSERVATIONS (EAST)

CITY           SKY/WX    TMP DP  RH WIND       PRES   REMARKS
$$

SUPPLEMENTAL OBSERVATIONS ARE A COLLECTION OF AUTOMATED INSTRUMENTS
THAT ARE MAINTAINED BY A VARIETY OF FEDERAL AND STATE AGENCIES.
CERTAIN ELEMENTS...SUCH AS HUMIDITY VALUES AND SUSTAINED WIND
SPEEDS...MAY BE APPROXIMATED.




USA.gov is the U.S. government's official web portal to all federal, state and local government web resources and services.